User: anonymous   Login
Location: Unspecified
(0.0000°N, 0.0000°E)
Time: 14:46:44
(UTC+00:00)
Language:

GSAT 7 - Orbit

View from above orbital plane
View from above orbital plane
View from above satellite
View from above satellite

Ground track
Ground track

The orbit data is extracted from the following two-line orbital elements,

1 39234U 13044B   17268.78110116 -.00000094 +00000-0 +00000-0 0  9996
2 39234 000.0541 254.6509 0003239 343.3013 122.0319 01.00272071013404
Epoch (UTC): 25 September 2017 18:44:47
Eccentricity: 0.0003239
inclination: 0.0541°
perigee height: 35772 km
apogee height: 35800 km
right ascension of ascending node: 254.6509°
argument of perigee: 343.3013°
revolutions per day: 1.00272071
mean anomaly at epoch: 122.0319°
orbit number at epoch: 1340

The dashed part of the orbit path shows where the satellite is in the earth's shadow,  

DLR